Regional Weather Roundup
Issued by NWS

Home | Current Version | Previous Version | Graphics & Text | Print | Product List | Glossary On
Versions: 1 2 3 4 5 6 7 8 9 10 11 12 13 14 15 16 17 18 19 20 21 22 23 24 25 26 27 28 29 30 31 32 33 34 35 36 37 38 39 40 41 42 43 44 45 46 47 48 49 50
000
ASUS43 KBIS 200510
RWRND
NORTH DAKOTA REGIONAL WEATHER ROUNDUP
NATIONAL WEATHER SERVICE EASTERN NORTH DAKOTA/GRAND FORKS ND
1200 AM CDT FRI APR 20 2018

  NOTE: "FAIR" INDICATES FEW OR NO CLOUDS BELOW 12,000 FEET WITH NO
  SIGNIFICANT WEATHER AND/OR OBSTRUCTIONS TO VISIBILITY.

NDZ001>003-009>011-017-200600-
...NORTHWEST NORTH DAKOTA...

CITY           SKY/WX    TMP DP  RH WIND       PRES   REMARKS
WILLISTON      FAIR      39  34  82 E10       30.28F WCI  32
MINOT          FAIR      37  33  85 CALM      30.32F
MINOT AFB      FAIR      32  32  99 S5        30.31F WCI  27
$$

NDZ018>021-031>035-040>046-200600-
...SOUTHWEST NORTH DAKOTA...

CITY           SKY/WX    TMP DP  RH WIND       PRES   REMARKS
BISMARCK       FAIR      38  31  76 E3        30.34S
DICKINSON      FAIR      35  29  78 E10       30.24F WCI  27
GARRISON         N/A     35  33  92 E8        30.31F WCI  29
HETTINGER      FAIR      40  28  62 SE12      30.26F WCI  33
$$

NDZ004>008-012>016-024-026-027-054-200600-
...NORTHEAST NORTH DAKOTA...

CITY           SKY/WX    TMP DP  RH WIND       PRES   REMARKS
GRAND FORKS    FAIR      34  32  92 S6        30.37F WCI  29
GRAND FORKS AF FAIR      37  32  82 CALM      30.37S
DEVILS LAKE    FAIR      33  31  92 CALM      30.37R
$$

NDZ022-023-025-028>030-036>039-047>053-200600-
...SOUTHEAST NORTH DAKOTA...

CITY           SKY/WX    TMP DP  RH WIND       PRES   REMARKS
JAMESTOWN      FAIR      37  31  78 S8        30.36R WCI  31
FARGO          FAIR      38  32  79 SE6       30.38S WCI  33
WAHPETON       FAIR      39  32  75 S3        30.41R
$$




USA.gov is the U.S. government's official web portal to all federal, state and local government web resources and services.